TimeCST,TemperatureF,Dew PointF,Humidity,Sea Level PressureIn,VisibilityMPH,Wind Direction,Wind SpeedMPH,Gust SpeedMPH,PrecipitationIn,Events,Conditions,WindDirDegrees,DateUTC
12:15 AM,24.8,19.4,80,30.07,10.0,NNW,12.7,17.3,N/A,,Overcast,340,2013-03-01 06:15:00
12:35 AM,24.8,19.4,80,30.07,10.0,NNW,12.7,17.3,N/A,,Overcast,340,2013-03-01 06:35:00
12:55 AM,24.8,19.4,80,30.08,10.0,NNW,9.2,-,N/A,,Overcast,340,2013-03-01 06:55:00
1:15 AM,24.8,19.4,80,30.08,10.0,NNW,11.5,-,N/A,,Overcast,340,2013-03-01 07:15:00
1:35 AM,24.8,19.4,80,30.07,10.0,NNW,11.5,-,N/A,,Overcast,340,2013-03-01 07:35:00
1:55 AM,24.8,19.4,80,30.08,10.0,NNW,11.5,17.3,N/A,,Overcast,340,2013-03-01 07:55:00
2:15 AM,24.8,19.4,80,30.08,10.0,NNW,12.7,16.1,N/A,Snow,Light Snow,340,2013-03-01 08:15:00
2:35 AM,23.0,19.4,86,30.07,7.0,NNW,11.5,-,N/A,Snow,Light Snow,340,2013-03-01 08:35:00
2:55 AM,23.0,19.4,86,30.07,5.0,NNW,11.5,16.1,N/A,Snow,Light Snow,340,2013-03-01 08:55:00
3:35 AM,23.0,19.4,86,30.07,5.0,NNW,10.4,-,N/A,Snow,Light Snow,340,2013-03-01 09:35:00
3:55 AM,23.0,19.4,86,30.08,7.0,North,9.2,-,N/A,Snow,Light Snow,350,2013-03-01 09:55:00
4:15 AM,23.0,19.4,86,30.08,5.0,North,9.2,-,N/A,Snow,Light Snow,350,2013-03-01 10:15:00
4:35 AM,23.0,19.4,86,30.08,5.0,North,11.5,-,N/A,Snow,Light Snow,350,2013-03-01 10:35:00
5:15 AM,23.0,19.4,86,30.09,5.0,NNW,9.2,-,N/A,Snow,Light Snow,340,2013-03-01 11:15:00
5:35 AM,23.0,19.4,86,30.09,5.0,NNW,10.4,-,N/A,Snow,Light Snow,340,2013-03-01 11:35:00
5:55 AM,23.0,19.4,86,30.10,7.0,NNW,10.4,-,N/A,Snow,Light Snow,340,2013-03-01 11:55:00
6:15 AM,23.0,19.4,86,30.11,7.0,NNW,10.4,-,N/A,Snow,Light Snow,340,2013-03-01 12:15:00
6:35 AM,23.0,19.4,86,30.11,5.0,NNW,10.4,-,N/A,Snow,Light Snow,340,2013-03-01 12:35:00
6:55 AM,23.0,19.4,86,30.12,10.0,NNW,10.4,16.1,N/A,Snow,Light Snow,340,2013-03-01 12:55:00
7:15 AM,23.0,19.4,86,30.12,10.0,NNW,11.5,-,N/A,,Overcast,340,2013-03-01 13:15:00
7:35 AM,23.0,19.4,86,30.13,10.0,NNW,10.4,-,N/A,Snow,Light Snow,340,2013-03-01 13:35:00
7:55 AM,23.0,19.4,86,30.13,3.0,NNW,11.5,-,N/A,Snow,Light Snow,340,2013-03-01 13:55:00
8:15 AM,23.0,19.4,86,30.14,1.8,North,10.4,-,N/A,Snow,Light Snow,350,2013-03-01 14:15:00
8:35 AM,23.0,19.4,86,30.14,2.5,North,12.7,17.3,N/A,Snow,Light Snow,350,2013-03-01 14:35:00
9:15 AM,23.0,19.4,86,30.14,10.0,North,10.4,20.7,N/A,,Overcast,350,2013-03-01 15:15:00
9:35 AM,23.0,19.4,86,30.14,10.0,North,11.5,18.4,N/A,,Overcast,350,2013-03-01 15:35:00
9:55 AM,23.0,19.4,86,30.15,10.0,North,12.7,-,N/A,,Overcast,360,2013-03-01 15:55:00
10:15 AM,23.0,19.4,86,30.15,10.0,North,11.5,-,N/A,,Overcast,350,2013-03-01 16:15:00
10:35 AM,23.0,21.2,93,30.15,7.0,North,15.0,18.4,N/A,,Overcast,350,2013-03-01 16:35:00
10:55 AM,23.0,19.4,86,30.16,7.0,North,11.5,18.4,N/A,,Overcast,360,2013-03-01 16:55:00
11:35 AM,23.0,19.4,86,30.16,10.0,North,13.8,18.4,N/A,,Overcast,10,2013-03-01 17:35:00
11:55 AM,23.0,19.4,86,30.16,10.0,North,12.7,19.6,N/A,,Overcast,360,2013-03-01 17:55:00
12:15 PM,23.0,19.4,86,30.16,10.0,North,15.0,-,N/A,,Overcast,360,2013-03-01 18:15:00
12:35 PM,23.0,19.4,86,30.16,10.0,North,16.1,20.7,N/A,,Overcast,360,2013-03-01 18:35:00
12:55 PM,23.0,19.4,86,30.16,10.0,North,16.1,-,N/A,,Overcast,360,2013-03-01 18:55:00
1:35 PM,23.0,19.4,86,30.15,10.0,North,16.1,-,N/A,,Overcast,360,2013-03-01 19:35:00
1:55 PM,23.0,19.4,86,30.15,10.0,North,16.1,21.9,N/A,,Overcast,360,2013-03-01 19:55:00
2:15 PM,23.0,19.4,86,30.15,10.0,NNW,15.0,19.6,N/A,,Overcast,340,2013-03-01 20:15:00
2:35 PM,23.0,19.4,86,30.15,10.0,North,15.0,-,N/A,,Overcast,350,2013-03-01 20:35:00
2:55 PM,23.0,19.4,86,30.15,10.0,North,11.5,-,N/A,,Overcast,350,2013-03-01 20:55:00
3:15 PM,23.0,19.4,86,30.15,10.0,North,10.4,19.6,N/A,,Overcast,360,2013-03-01 21:15:00
3:35 PM,23.0,19.4,86,30.16,10.0,North,11.5,17.3,N/A,,Overcast,360,2013-03-01 21:35:00
3:55 PM,23.0,19.4,86,30.16,10.0,North,12.7,18.4,N/A,,Overcast,360,2013-03-01 21:55:00
4:15 PM,23.0,17.6,80,30.17,10.0,North,12.7,-,N/A,,Overcast,360,2013-03-01 22:15:00
4:35 PM,23.0,17.6,80,30.17,10.0,North,11.5,-,N/A,,Overcast,360,2013-03-01 22:35:00
4:55 PM,23.0,17.6,80,30.17,10.0,North,11.5,-,N/A,,Overcast,350,2013-03-01 22:55:00
5:15 PM,23.0,17.6,80,30.18,10.0,North,9.2,-,N/A,,Overcast,350,2013-03-01 23:15:00
5:35 PM,23.0,17.6,80,30.18,10.0,North,11.5,-,N/A,,Overcast,350,2013-03-01 23:35:00
5:55 PM,23.0,17.6,80,30.18,10.0,North,11.5,18.4,N/A,,Overcast,350,2013-03-01 23:55:00
6:15 PM,23.0,17.6,80,30.19,10.0,North,11.5,-,N/A,,Overcast,350,2013-03-02 00:15:00
6:35 PM,23.0,17.6,80,30.19,10.0,NNW,12.7,-,N/A,,Overcast,340,2013-03-02 00:35:00
6:55 PM,23.0,17.6,80,30.19,10.0,NNW,11.5,-,N/A,,Overcast,340,2013-03-02 00:55:00
7:15 PM,23.0,17.6,80,30.19,10.0,NNW,12.7,18.4,N/A,,Overcast,340,2013-03-02 01:15:00
7:35 PM,23.0,19.4,86,30.19,10.0,NNW,11.5,-,N/A,,Overcast,330,2013-03-02 01:35:00
7:55 PM,23.0,19.4,86,30.20,10.0,NNW,12.7,-,N/A,,Overcast,330,2013-03-02 01:55:00
8:15 PM,23.0,19.4,86,30.20,10.0,NNW,10.4,-,N/A,,Overcast,340,2013-03-02 02:15:00
8:35 PM,23.0,17.6,80,30.20,10.0,NNW,10.4,-,N/A,,Overcast,340,2013-03-02 02:35:00
8:55 PM,23.0,17.6,80,30.20,10.0,North,12.7,17.3,N/A,,Overcast,350,2013-03-02 02:55:00
9:15 PM,23.0,17.6,80,30.19,10.0,NNW,13.8,19.6,N/A,,Overcast,340,2013-03-02 03:15:00
9:35 PM,23.0,17.6,80,30.20,10.0,NNW,12.7,-,N/A,,Overcast,330,2013-03-02 03:35:00
9:55 PM,23.0,17.6,80,30.19,10.0,NNW,10.4,17.3,N/A,,Overcast,340,2013-03-02 03:55:00
10:15 PM,23.0,17.6,80,30.18,10.0,NNW,13.8,-,N/A,,Overcast,340,2013-03-02 04:15:00
10:35 PM,23.0,17.6,80,30.18,10.0,North,15.0,-,N/A,,Overcast,350,2013-03-02 04:35:00
10:55 PM,23.0,17.6,80,30.18,10.0,NNW,13.8,-,N/A,,Overcast,340,2013-03-02 04:55:00
11:15 PM,23.0,17.6,80,30.18,10.0,NNW,10.4,-,N/A,,Overcast,340,2013-03-02 05:15:00
11:35 PM,23.0,17.6,80,30.18,10.0,NNW,12.7,-,N/A,,Overcast,340,2013-03-02 05:35:00
11:55 PM,23.0,17.6,80,30.18,10.0,NNW,10.4,18.4,N/A,,Overcast,340,2013-03-02 05:55:00